{"data":{"norad_id":58808,"epoch":"2026-09-20T08:45:25.305408Z","epoch_age_seconds":164206,"freshness":"FRESH","line1":"1 58808U 24012X   26263.36487622  .00000346  00000+0  22094-4 0  9998","line2":"2 58808  43.0001 145.4197 0001103 273.7154  86.3571 15.27572967151013","mean_motion":15.27572967,"eccentricity":0.0001103,"inclination_deg":43.0001,"raan_deg":145.4197,"arg_perigee_deg":273.7154,"mean_anomaly_deg":86.3571,"bstar":2.2094e-5,"rev_number":15101,"period_min":94.267182721099,"perigee_km":482.31336430331,"apogee_km":483.82694660181,"semimajor_km":6861.2071554526,"source":"CELESTRAK","updated_at":"2026-09-21T09:00:33.982275Z"}}